Location: Pompeys Pillar
(45.9913°N, 107.9528°W)
Time: 04:57:45
(UTC+00:00)

Tiros 1 - Pass Details

Date: 29 May 2022
Orbit: 629 x 663 km, 48.4° (Epoch: 30 June)

Event Time Altitude Azimuth Distance (km) Brightness Sun altitude
Rises 11:59:28 0° 289° (WNW) 2,934 10.1 4.1°
Reaches altitude 10° 12:01:49 10° 285° (WNW) 2,028 9.3 4.5°
Maximum altitude 12:06:22 54° 209° (SSW) 785 7.4 5.2°
Drops below altitude 10° 12:10:56 10° 133° (SE) 2,041 10.1 5.9°
Sets 12:13:19 0° 128° (SE) 2,955 10.9 6.3°
